Location: *
(45.1961°N, 1.9694°E)
Time: 23:01:20
(UTC+00:00)

Cosmos 1939 Rocket - Pass Details

Date: 25 August 2019
Orbit: 532 x 585 km, 97.4° (Epoch: 19 September)

Event Time Altitude Azimuth Distance (km) Brightness Sun altitude
Rises 19:17:42 0° 184° (S) 2,758 6.2 -6.6°
Reaches altitude 10° 19:19:57 10° 191° (SSW) 1,857 5.4 -7.0°
Maximum altitude 19:23:44 40° 262° (W) 837 4.3 -7.6°
Drops below altitude 10° 19:27:30 10° 333° (NNW) 1,842 6.3 -8.2°
Sets 19:29:44 0° 341° (NNW) 2,732 7.1 -8.6°
